Location: Banff
(51.1667°N, 115.5667°W)
Time: 04:22:13
(UTC+00:00)

Explorer 7 - Pass Details

Date: 02 December 2020
Orbit: 484 x 678 km, 50.3° (Epoch: 16 January)

Event Time Altitude Azimuth Distance (km) Brightness Sun altitude
Exits shadow 12:57:31 50° 199° (SSW) 712 7.2 -22.3°
Drops below altitude 10° 13:01:21 10° 127° (SE) 1,777 10.3 -21.7°
Sets 13:03:32 0° 122° (ESE) 2,635 11.5 -21.4°
